STARLINK-2629, 48686

Orbit data source: Space-Track

STARLINK-2629, 48686 is a payload satellite owned by SpaceX/Seattle (US) in LEO that was launched on Wed, 26 May 2021 UTC via an FALCON 9 launch vehicle from the Air Force Eastern Test Range (AFETR). Payload-class satellites include a variety of spacecraft equipped with specific instruments for various scientific and technological missions. These include communications satellites like Starlink; space stations such as the ISS; scientific satellites like the Hubble; Earth observation satellites from companies like Planet Labs, Umbra, and HawkEye 360; GPS; miniature CubeSats for education and research; and military/defense satellites.

Loading next visibility...
Identifier
48686, 2021-044BA
Orbit
LEO
Country
Flag of USUS
Related business
Manufacturer
SpaceX/Seattle
Mission
Operational Commercial Communications
Bus & Motor
STARLINK, Unknown motor
Mass
260 kg wet, ~248 kg dry
Launch date (UTC)
2021-05-26 (5 years ago)
Launch vehicle
FALCON 9
Launch site
Air Force Eastern Test Range (AFETR)
Object type
Payload
Rocket body
Debris
Shape & HBR
Box + 1 Pan, 10.1 m
Radar Cross Section
13.562 m², Large (>1 m²)

Expand to show TLE details & history
Last TLE update: 2 days ago

TLE from 2 days ago
0 STARLINK-2629
1 48686U 21044BA  26171.42063387  .00000759  00000-0  36212-4 0  9992
2 48686  53.1604 317.4460 0001030  83.2243 276.8875 15.31713497280097
Epoch: 2026-06-20T10:05Z
TLE epoch observation values (Epoch: 2026-06-20T10:05:42.766Z)
Latitude
-0.00007°
Longitude
-102.61775°
Altitude
471.516 km
Speed
7.632 km/s
True Right ascension
21h 09m 47s
True Declination
0° 00' 00"
Sunlit
Object was in full shadow at epoch
Visualization orbit readout
Latitude
Unknown
Longitude
Unknown
Altitude
Unknown
Speed
Unknown
Apparent Right ascension
Unknown
Apparent Declination
Unknown
Sunlit
N/A
Visualization observer readout
Local Sidereal Time
21:34:52
Azimuth
Unknown
Elevation
Unknown
Doppler factor
Unknown
Orbital elements
Apogee altitude
471.662 km
Perigee altitude
470.251 km
Semi-major axis
6,849.093 km
Eccentricity
0.0001
Inclination
53.1604°
RAAN
317.446°
Arg. of periapsis
83.2243°
True anomaly
276.87578°
Mean anomaly
276.8875°
Eccentric anomaly
276.88164°
Mean motion
3.82907 °/min
Orbital period
94.02 mins
BSTAR
0.000036212
Loading maneuver chart data...
Computing Atmospheric mass density...

Documentation

Showing up to 5 results
|